Location: Newark
(44.3681°N, 100.3364°W)
Time: 10:15:47
(UTC+00:00)

S-56A Canister/Altair - Pass Details

Date: 07 March 2020
Orbit: 634 x 2498 km, 38.9° (Epoch: 28 March)

Event Time Altitude Azimuth Distance (km) Brightness Sun altitude
Rises 11:35:06 0° 193° (SSW) 3,980 11.0 -17.2°
Reaches altitude 10° 11:38:23 10° 176° (S) 3,305 10.7 -16.6°
Maximum altitude 11:44:20 21° 132° (SE) 3,033 11.0 -15.6°
Drops below altitude 10° 11:51:54 10° 90° (E) 4,370 12.8 -14.3°
Sets 11:57:07 0° 77° (ENE) 5,687 13.9 -13.3°
